Weather History for Vicksburg, MS

Change the Weather History Date:

Wednesday, December 7, 2011

  Actual Average Record
Temperature  
Mean Temperature 34 °F 50 °F  
Max Temperature 39 °F 60 °F 81 °F (1951)
Min Temperature 29 °F 39 °F 16 °F (1984)
Degree Days  
Heating Degree Days 31 16  
Month to date heating degree days 113 106  
Since 1 July heating degree days 560 508  
Cooling Degree Days 0 0  
Month to date cooling degree days 3 0  
Year to date cooling degree days 2591 2225  
Moisture  
Dew Point 31 °F    
Average Humidity 85    
Maximum Humidity 100    
Minimum Humidity 70    
Precipitation  
Precipitation T in 0.20 in 1.77 in (1974)
Month to date precipitation 1.45 1.40  
Year to date precipitation 32.85 50.53  
Sea Level Pressure  
Sea Level Pressure 30.31 in    
Wind  
Wind Speed 7 mph (WNW)    
Max Wind Speed 17 mph    
Max Gust Speed 23 mph    
Visibility 10 miles    
Events Rain    
T = Trace of Precipitation, MM = Missing Value Source: NWS Daily Summary

Daily Weather History Graph

Daily Weather History Graph

Search for Another Location

Airport:

Trip Planner

Search our weather history database for the weather conditions in past years. The results will help you decide how hot, cold, wet, or windy it might be!

Date:

Astronomy

Dec. 07, 2011 Rise Set
Actual Time 6:52 AM CST 4:58 PM CST
Civil Twilight 6:25 AM CST 5:25 PM CST
Nautical Twilight 5:54 AM CST 5:56 PM CST
Astronomical Twilight 5:24 AM CST 6:26 PM CST
Moon 2:56 PM CST (12/7) 4:11 AM CST (12/7)
Length of Visible Light 11h 00m
Length of Day
10h 06m
Waxing Gibbous, 92% of the Moon is Illuminated
Dec 7
Waxing Gibbous
Dec 10
Full
Dec 17
Last Quarter
Dec 24
New
Jan 1
First Quarter

Hourly Weather History & Observations

Time (CST) Temp. Windchill Dew Point Humidity Pressure Visibility Wind Dir Wind Speed Gust Speed Precip Events Conditions
12:53 AM 37.0 °F 31.6 °F 36.0 °F 96% 30.20 in 5.0 mi WNW 6.9 mph - 0.00 in   Overcast
1:53 AM 37.0 °F 31.6 °F 36.0 °F 96% 30.19 in 8.0 mi NW 6.9 mph - 0.00 in   Overcast
3:46 AM 37.4 °F 31.4 °F 35.6 °F 93% 30.17 in 10.0 mi WNW 8.1 mph 17.3 mph 0.00 in Rain Light Rain
3:53 AM 37.0 °F 30.4 °F 35.1 °F 93% 30.20 in 10.0 mi WNW 9.2 mph - 0.00 in Rain Light Rain
4:53 AM 36.0 °F 26.7 °F 34.0 °F 93% 30.22 in 10.0 mi NW 15.0 mph 19.6 mph 0.00 in   Overcast
5:53 AM 35.1 °F 26.4 °F 33.1 °F 92% 30.25 in 10.0 mi NW 12.7 mph - 0.00 in   Overcast
6:02 AM 35.6 °F 28.0 °F 33.8 °F 93% 30.23 in 10.0 mi WNW 10.4 mph - 0.00 in   Overcast
7:53 AM 35.1 °F 27.4 °F 30.9 °F 85% 30.32 in 8.0 mi NW 10.4 mph 20.7 mph 0.00 in   Overcast
8:53 AM 35.1 °F 27.4 °F 32.0 °F 89% 30.34 in 8.0 mi NW 10.4 mph - 0.00 in   Overcast
9:53 AM 35.1 °F 26.9 °F 30.0 °F 82% 30.34 in 9.0 mi NNW 11.5 mph - N/A   Overcast
10:53 AM 35.1 °F 27.4 °F 30.0 °F 82% 30.36 in 10.0 mi NW 10.4 mph 19.6 mph N/A   Overcast
11:53 AM 37.0 °F 29.8 °F 30.0 °F 76% 30.33 in 10.0 mi WNW 10.4 mph - N/A   Overcast
12:53 PM 37.0 °F 29.8 °F 28.9 °F 73% 30.32 in 10.0 mi WNW 10.4 mph - N/A   Overcast
1:53 PM 37.0 °F 32.4 °F 30.0 °F 76% 30.31 in 10.0 mi Variable 5.8 mph - N/A   Overcast
2:53 PM 37.9 °F 33.5 °F 30.0 °F 73% 30.34 in 10.0 mi WNW 5.8 mph - N/A   Overcast
3:53 PM 39.0 °F 35.7 °F 30.0 °F 70% 30.35 in 10.0 mi WNW 4.6 mph - N/A   Overcast
4:53 PM 39.0 °F - 30.9 °F 73% 30.35 in 10.0 mi Calm Calm - N/A   Overcast
5:53 PM 36.0 °F - 30.0 °F 79% 30.36 in 10.0 mi Calm Calm - N/A   Mostly Cloudy
6:53 PM 36.0 °F 33.3 °F 32.0 °F 86% 30.38 in 10.0 mi South 3.5 mph - N/A   Overcast
7:53 PM 32.0 °F - 30.0 °F 92% 30.38 in 10.0 mi Calm Calm - N/A   Clear
8:53 PM 30.0 °F - 28.0 °F 92% 30.38 in 10.0 mi Calm Calm - N/A   Clear
9:53 PM 30.9 °F - 30.0 °F 96% 30.38 in 10.0 mi Calm Calm - N/A   Clear
10:53 PM 33.1 °F 27.7 °F 30.0 °F 89% 30.37 in 10.0 mi ESE 5.8 mph - N/A   Clear
11:53 PM 30.0 °F 25.2 °F 28.0 °F 92% 30.36 in 10.0 mi SE 4.6 mph - N/A   Clear